NOAA NWS Hourly Roundups by Site

Regional Weather Roundup for Upton, NY

To Select Another Site Choose from List

Select Site:  

000
ASUS41 KOKX 131406
RWROKX

Regional Weather Roundup
National Weather Service New York NY
1000 AM EDT THU AUG 13 2020

Note: "FAIR" indicates few or no clouds below 12,000 feet with no
significant weather and/or obstructions to visibility.

NYZ071-072-176-178-NJZ106-104-131500-
New York City Metro Area

CITY           SKY/WX    TMP DP  RH WIND       PRES   REMARKS
Central Park   RAIN      74  68  81 CALM      30.13R
Bronx Lehman C   N/A     77  66  69 E8          N/A
LaGuardia Arpt DRIZZLE   78  65  63 NE7       30.09R
Queens College   N/A     77  68  73 N6          N/A
Kennedy Intl   CLOUDY    79  73  82 CALM      30.10R
Breezy Point     N/A     75 N/A N/A S1          N/A
Brooklyn Coll    N/A     79  70  73 NW3         N/A
Staten Island    N/A     73  72  94 NW1         N/A
Newark/Liberty TSTM      72  69  90 VRB5      30.10R FOG
Teterboro      PTSUNNY   78  65  63 N3        30.09R
$$

NYZ177-179-078>081-131500-
Long Island New York

CITY           SKY/WX    TMP DP  RH WIND       PRES   REMARKS
Jones Beach      N/A     75 N/A N/A S3          N/A
Wantagh          N/A     79  75  89 E3          N/A
Hempstead      NOT AVBL
Matinecock Pt    N/A     75 N/A N/A E10         N/A
Farmingdale    PTSUNNY   80  72  76 E3        30.09S
MacArthur/ISP  PTSUNNY   81  75  82 SE6       30.09R
Shirley        CLOUDY    82  73  74 S8        30.10R
Mt Sinai Harb  NOT AVBL
Westhampton    MOSUNNY   80  74  81 E6        30.11R
East Hampton   PTSUNNY   80  69  70 N5        30.10R
Southold         N/A     82  66  57 E6          N/A
Montauk          N/A     80  67  64 NE7       30.11R
$$

NYZ052-065-067-131500-
Hudson Valley

CITY           SKY/WX    TMP DP  RH WIND       PRES   REMARKS
White Plains   PTSUNNY   78  65  63 VRB3      30.11S
Larchmont Harb   N/A     73 N/A N/A NE6         N/A
Croton On Huds   N/A     82 N/A N/A NE2         N/A
Somers           N/A     79  64  61 E2          N/A
Brewster         N/A     77  66  69 N5          N/A
Newburgh       PTSUNNY   77  66  69 CALM      30.14S
Montgomery     MOSUNNY   77  64  64 NE9       30.13S
Otisville        N/A     75  64  69 NE3         N/A
Warwick          N/A     75  66  73 NE3         N/A
Suffern          N/A     77  66  69 E1          N/A
Poughkeepsie   MOSUNNY   77  64  64 N5        30.12S
Albany         PTSUNNY   69  65  86 N5        30.15S
$$

NJZ001-105-106-008-010-013-015-019>022-104-131500-
New Jersey

CITY           SKY/WX    TMP DP  RH WIND       PRES   REMARKS
Newark/Liberty TSTM      72  69  90 VRB5      30.10R FOG
Teterboro      PTSUNNY   78  65  63 N3        30.09R
Caldwell       PTSUNNY   79  64  60 E3        30.12R
Somerville     LGT RAIN  70  67  90 CALM      30.10
Linden         CLOUDY   N/A N/A N/A CALM      30.11R
Perth Amboy      N/A     72 N/A N/A N3          N/A
Sussex         MOSUNNY   76  64  66 NE7       30.13S
Andover          N/A     76  63  64 NE7       30.14R
Trenton        PTSUNNY   75  72  90 NW5       30.09R
Millville      PTSUNNY   79  75  87 E3        30.08R
Atlantic City  PTSUNNY   83  74  74 S6        30.08R
Wrightstown    PTSUNNY   77  73  86 CALM      30.09
Toms River     CLOUDY    76  74  93 N3        30.10R
Belmar         CLOUDY    79  78  97 N3        30.11R
$$

PAZ047>061-062-071-131500-
Eastern Pennsylvania

CITY           SKY/WX    TMP DP  RH WIND       PRES   REMARKS
Philadelphia   CLOUDY    81  73  76 E9        30.08R
Allentown      CLOUDY    76  64  66 NE8       30.12R
Scranton       CLOUDY    73  62  68 NE3       30.16S
$$

CTZ002-004>006-009-010-012-RIZ004-006-007-MAZ004-011-015-131500-
Southern New England

 In CT

CITY           SKY/WX    TMP DP  RH WIND       PRES   REMARKS
Bradley Intl   PTSUNNY   78  62  57 N6        30.12S
Hartford       CLOUDY    79  62  56 N7        30.11S
Danbury        PTSUNNY   79  64  60 NE6       30.13S
Wtrbury/Oxford PTSUNNY   78  64  61 E10       30.14R
Norwalk Harbor   N/A     77 N/A N/A NE7         N/A
Bridgeport     PTSUNNY   79  66  64 NE7       30.10R
Meriden        CLOUDY    80  62  54 NE6       30.11S
New Haven      MOSUNNY   82  66  58 NE6       30.10S
Chester        FAIR     N/A N/A N/A MISG        N/A
Groton         MOSUNNY   81  68  64 N6        30.09R
Willimantic    PTSUNNY   79  66  64 CALM      30.11F

 In RI

CITY           SKY/WX    TMP DP  RH WIND       PRES   REMARKS
Providence     PTSUNNY   79  63  57 N7        30.11S
Block Island   MOSUNNY   78  67  68 VRB7      30.11R
Westerly       PTSUNNY   79  67  66 N6        30.10R

In MA

CITY           SKY/WX    TMP DP  RH WIND       PRES   REMARKS
Boston         PTSUNNY   83  57  41 NE9       30.11R
Worcester      MOSUNNY   80  56  43 NE7       30.16R
Westfield      PTSUNNY   79  62  56 NE5       30.13S
Provincetown   PTSUNNY   72  68  87 N3        30.10R
Nantucket      CLOUDY    77  73  87 SW9       30.09S FOG
$$

ANZ330-335-338-340-345-350-353-355-131500-
Coastal Marine Observations


STATION/POSITION TIME  SKY/WX   TEMP    WIND        PRES    VSBY  WAVE
                                AIR SEA DIR/SP/G                  HT/PER
                 (UTC)          (F)     (DEG/KT/KT) (MB)    (MI)  (FT/S)
NY Harb Entrance 1340               74   CALM  /  2 1018.5
20 S Fire Island 1340               76  220/  4/  6 1018.6
Great South Bay  1330            76     180/  4/  4   N/A
23 SSW Montauk P 1340            74 75  320/  2/  4 1019.3
15 E Barnegat Li 1326               74                N/A           1/ 9
Hudson Canyon    1340               80              1019.5
Kings Point      1330            76      60/  6/  7   N/A
Execution Rocks  1330            75      30/  8/ 14   N/A
Western LI Sound 1300            77      50/ 10/ 12   N/A
Central LI Sound NOT AVBL
Robbins Reef     1330            74     350/  6/  7   N/A
$$


>>>>>>>>>>>>>>>>>>>>>>>>>>>> KEY <<<<<<<<<<<<<<<<<<<<<<<<<<<
>                                                          <
>     SKY/WX - Sky Condition/Present Weather               <
>     TMP    - Temperature in Fahrenheit                   <
>     DP     - Dew Point in Fahrenheit                     <
>     RH     - Relative Humidity in Percent                <
>     WIND   - Direction (from) and Speed in MPH           <
>     PRES   - Mean Sea Level Pressure (inches of Hg)      <
>     WCI    - Wind Chill Index                            <
>     VSB    - Visibility in Miles                         <
>     HX     - Heat Index                                  <
>     TC     - Temperature in Celsius                      <
>     VRB    - Variable Wind Direction                     <
>                                                          <
>>>>>>>>>>>>>>>>>>>>>>>>>>>> KEY <<<<<<<<<<<<<<<<<<<<<<<<<<<


 

View Past Reports for Upton, NY.

Products Courtesy of NOAA-NWS
NWS Information Parsing Script by Ken True at Saratoga Weather - Script by SE Lincoln Weather.